Lander, WY

7:01 PM MDT on March 23, 2017 (GMT -0600)
Hunt

Weather History for KLND - March, 2014

Change the Weather History Date:

Saturday, March 29, 2014

  Actual Average Record
Temperature  
Mean Temperature 46 °F 39 °F  
Max Temperature 60 °F 52 °F 72 °F (1943)
Min Temperature 31 °F 27 °F -4 °F (1987)
Degree Days  
Heating Degree Days 19 26  
Month to date heating degree days 844 865  
Since 1 July heating degree days 6580 6569  
Cooling Degree Days 0 0  
Month to date cooling degree days 0 0  
Year to date cooling degree days 0 0  
Moisture  
Dew Point 19 °F    
Average Humidity 38    
Maximum Humidity 56    
Minimum Humidity 19    
Precipitation  
Precipitation 0.00 in 0.05 in 1.74 in (2016)
Month to date precipitation 0.82 1.06  
Year to date precipitation 1.62 2.05  
Snow  
Snow 0.00 in 0.60 in - ()
Month to date snowfall 11.3 14.9  
Since 1 July snowfall 66.6 68.5  
Snow Depth 0.00 in    
Sea Level Pressure  
Sea Level Pressure 29.82 in    
Wind  
Wind Speed 7 mph (West)    
Max Wind Speed 30 mph    
Max Gust Speed 43 mph    
Visibility 10 miles    
Events      
T = Trace of Precipitation, MM = Missing Value Source: NWS Daily Summary

Daily Weather History Graph

Daily Weather History Graph

Search for Another Location

Airport or City:

Trip Planner

Search our weather history database for the weather conditions in past years. The results will help you decide how hot, cold, wet, or windy it might be!

Date:

Astronomy

Mar. 29, 2014 Rise Set
Actual Time 7:02 AM MDT 7:37 PM MDT
Civil Twilight 6:33 AM MDT 8:06 PM MDT
Nautical Twilight 6:00 AM MDT 8:39 PM MDT
Astronomical Twilight 5:25 AM MDT 9:14 PM MDT
Moon 6:14 AM MDT (3/29) 6:45 PM MDT (3/29)
Length of Visible Light 13h 32m
Length of Day
12h 35m
Waning Crescent, 1% of the Moon is Illuminated
Mar 29
Waning Crescent
Mar 30
New
Apr 7
First Quarter
Apr 15
Full
Apr 22
Last Quarter

Hourly Weather History & Observations

Time (MDT) Temp. Windchill Dew Point Humidity Pressure Visibility Wind Dir Wind Speed Gust Speed Precip Events Conditions
12:53 AM 43.0 °F 35.1 °F 18.0 °F 37% 30.00 in 10.0 mi WSW 17.3 mph 27.6 mph N/A   Clear
1:53 AM 39.9 °F 36.7 °F 18.0 °F 41% 29.99 in 10.0 mi South 4.6 mph - N/A   Clear
2:53 AM 42.1 °F 37.1 °F 19.9 °F 41% 29.96 in 10.0 mi South 8.1 mph - N/A   Clear
3:53 AM 36.0 °F 32.1 °F 19.9 °F 52% 29.96 in 10.0 mi NNE 4.6 mph - N/A   Clear
4:53 AM 35.1 °F 31.0 °F 19.9 °F 54% 29.94 in 10.0 mi NNW 4.6 mph - N/A   Clear
5:53 AM 34.0 °F 28.8 °F 19.9 °F 56% 29.93 in 10.0 mi NW 5.8 mph - N/A   Scattered Clouds
6:53 AM 34.0 °F 28.0 °F 19.0 °F 54% 29.94 in 10.0 mi NNE 6.9 mph - N/A   Scattered Clouds
7:53 AM 36.0 °F 33.3 °F 21.0 °F 55% 29.94 in 10.0 mi Variable 3.5 mph - N/A   Clear
8:53 AM 39.9 °F - 21.0 °F 47% 29.91 in 10.0 mi Calm Calm - N/A   Clear
9:53 AM 46.9 °F - 24.1 °F 41% 29.87 in 10.0 mi NE 5.8 mph - N/A   Clear
10:53 AM 52.0 °F - 21.9 °F 31% 29.84 in 10.0 mi North 8.1 mph - N/A   Mostly Cloudy
11:53 AM 57.0 °F - 21.0 °F 25% 29.78 in 10.0 mi West 12.7 mph 25.3 mph N/A   Clear
12:53 PM 59.0 °F - 18.0 °F 20% 29.74 in 10.0 mi NNW 17.3 mph 27.6 mph N/A   Clear
1:53 PM 57.9 °F - 18.0 °F 21% 29.74 in 10.0 mi Variable 4.6 mph - N/A   Partly Cloudy
2:53 PM 55.9 °F - 19.0 °F 24% 29.73 in 10.0 mi Variable 6.9 mph - N/A   Partly Cloudy
3:24 PM 57.0 °F - 19.0 °F 23% 29.80 in 10.0 mi SSE 8.1 mph 41.4 mph N/A   Squalls
3:53 PM 57.0 °F - 19.0 °F 23% 29.73 in 10.0 mi Calm Calm - N/A   Scattered Clouds
4:53 PM 57.0 °F - 18.0 °F 22% 29.72 in 10.0 mi NNW 10.4 mph - N/A   Scattered Clouds
5:53 PM 55.9 °F - 17.1 °F 22% 29.72 in 10.0 mi SSW 10.4 mph - N/A   Clear
6:53 PM 55.0 °F - 16.0 °F 22% 29.72 in 10.0 mi WSW 9.2 mph - N/A   Clear
7:53 PM 52.0 °F - 17.1 °F 25% 29.75 in 10.0 mi SW 9.2 mph 38.0 mph N/A   Clear
8:53 PM 53.1 °F - 17.1 °F 24% 29.72 in 10.0 mi North - - N/A   Clear
9:53 PM 50.0 °F - 18.0 °F 28% 29.71 in 10.0 mi SSE 6.9 mph - N/A   Clear
10:53 PM 51.1 °F - 17.1 °F 26% 29.69 in 10.0 mi SE 9.2 mph - N/A   Clear
11:53 PM 48.9 °F - 18.0 °F 29% 29.64 in 10.0 mi North - - N/A   Clear